SCP
-0 0 0 0 0 0 -0 -0 0 0 0 0 0 0 0 0 0 0 0 0 0 0 0 0 0 0 0 0 -0 -0 -0 0 0 -0 -0 -0 0 0
0 0 0 0 0 -0 -0 0 0 0 0 0 0 0 0 0 0 0 0 0 0 -0 0 0 0 0 0 0 -0 -0 -0 0 -0 -0 -0 0 0 0
-0 0 0 0 -0 -0 -0 0 0 0 0 0 0 0 0 0 0 0 0 0 0 -0 -0 0 0 0 0 -0 0 -0 -0 -0 -0 -0 -0 0 0 0
-0 0 -0 0 0 0 0 -0 0 0 0 0 0 0 0 0 0 0 0 0 0 0 0 0 0 -0 -0 -0 0 0 -0 -0 -0 -0 0 0 0 0
0 0 0 0 -0 0 0 0 0 0 0 0 0 0 0 0 0 0 0 0 0 -0 0 0 -0 0 -0 0 -0 -0 -0 -0 0 0 0 0 0 0
0 0 0 0 0 0 0 0 0 -0 0 0 0 0 0 0 0 0 0 0 0 0 0 0 -0 -0 0 0 -0 -0 -0 0 0 0 0 0 0 0
0 0 0 0 0 0 0 0 0 0 0 0 0 0 0 0 0 0 0 0 0 0 0 0 0 0 0 -0 -0 -0 -0 0 0 0 0 0 0 0
0 0 0 0 0 -0 0 0 0 0 0 0 0 0 0 0 0 0 0 0 0 0 -0 0 0 0 0 -0 -0 -0 0 0 0 0 0 0 0 0
0 0 0 0 0 0 -0 0 0 0 0 -0 0 0 -0 -0 -0 -0 -0 -0 -0 -0 0 0 -0 -0 -0 0 0 0 0 0 0 0 0 0 0 0
0 0 0 0 0 0 0 -0 0 0 0 0 0 -0 -0 -0 -0 -0 -0 -0 -0 0 0 0 -0 -0 0 0 0 0 0 0 0 0 0 0 0 0
0 0 0 -0 -0 -0 0 0 0 0 0 0 0 -0 -0 -0 -0 -0 0 -0 -0 -0 0 -0 0 0 0 0 0 0 0 0 0 0 0 0 0 0
0 0 -0 0 -0 0 0 0 0 0 0 0 0 -0 -0 -0 0 -0 -0 0 -0 0 0 0 -0 0 0 0 0 0 0 0 0 0 0 0 0 0
0 0 -0 0 0 0 0 0 0 0 -0 -0 -0 -0 -0 -0 -0 -0 -0 -0 -0 0 -0 0 0 0 0 0 0 0 0 0 0 0 0 0 0 0
-0 -0 -0 -0 -0 0 0 -0 -0 -0 -0 -0 -0 -0 -0 -0 -0 -0 0 -0 -0 0 0 0 0 0 0 0 0 0 0 0 0 0 0 0 0 0
-0 -0 -0 0 -0 0 -0 -0 -0 -0 -0 -0 -0 -0 -0 -0 0 0 -0 0 -0 0 0 0 0 0 0 0 0 0 0 0 0 0 0 0 0 0
0 0 0 0 0 -0 -0 -0 -0 -0 -0 -0 -0 -0 -0 0 -0 0 0 0 0 0 0 0 0 0 0 0 0 0 0 0 0 0 0 0 0 0
0 0 0 0 0 -0 -0 -0 -0 -0 -0 -0 0 0 -0 -0 -0 -0 -0 0 0 0 0 0 0 0 0 0 0 0 0 0 0 0 0 0 0 0
0 0 0 0 0 -0 -0 -0 -0 -0 0 0 0 -0 -0 -0 -0 -0 0 0 0 0 0 0 0 0 0 0 0 0 0 0 0 0 0 0 0 0
-0 0 -0 -0 -0 -0 -0 0 -0 0 -0 -0 -0 -0 -0 -0 -0 0 0 0 0 0 0 0 0 0 0 0 0 0 0 0 0 0 0 0 0 0
-0 -0 -0 -0 -0 -0 -0 -0 0 -0 0 -0 -0 -0 0 0 0 0 0 0 0 0 0 0 0 0 0 0 0 0 0 0 0 0 0 0 0 0
0 0 0 -0 0 0 -0 -0 -0 -0 -0 0 0 0 0 0 0 0 0 0 0 0 0 0 0 0 0 0 0 0 0 0 0 0 0 0 0 0
0 0 0 -0 -0 -0 -0 -0 -0 0 0 0 0 0 0 0 0 0 0 0 0 0 0 0 0 0 0 0 0 0 0 0 0 0 0 0 0 0
-0 -0 0 0 -0 0 0 0 0 0 0 0 0 0 0 0 0 0 0 0 0 0 0 0 0 0 0 0 0 0 0 0 0 0 0 0 0 0
Wind_Speed_500mb
6 10 13 13 8 11 26 41 43 42 30 32 28 27 33 33 42 43 66 75 75 77 75 53 44 39 38 34 28 24 21 15 8 5 4 3 6 10
5 5 11 8 6 12 29 45 44 49 35 39 37 37 36 43 35 80 74 81 73 62 55 52 44 44 38 33 26 24 18 11 9 5 5 7 10 15
7 5 7 9 8 18 37 39 38 42 49 36 36 33 43 52 82 80 86 88 63 54 52 53 48 39 31 27 25 19 15 11 7 6 9 13 15 15
9 9 5 16 16 29 35 35 38 27 42 61 56 54 65 82 95 93 81 68 61 56 50 46 43 38 29 16 17 18 13 9 5 9 12 10 9 12
7 9 15 17 23 29 32 29 29 35 41 61 73 88 94 93 86 81 78 66 57 50 50 49 42 33 25 21 19 14 8 8 9 5 5 9 10 9
4 10 13 11 17 18 22 27 31 48 72 87 83 85 86 91 74 77 68 60 58 52 46 42 36 30 26 21 14 10 8 6 4 6 7 4 5 7
12 11 15 14 13 22 31 33 35 77 99 89 89 85 80 77 75 71 69 61 51 46 44 38 31 27 23 17 13 11 10 7 6 5 1 3 4 6
15 17 20 19 22 28 31 31 44 96 100 96 87 84 82 79 69 60 57 63 56 38 40 36 27 26 20 18 16 14 10 7 4 3 3 3 4 9
21 24 25 25 28 34 37 40 69 88 88 96 88 78 70 64 69 66 62 58 55 51 39 35 28 23 22 22 18 12 8 6 6 4 2 2 9 15
27 22 27 29 31 35 50 57 78 83 82 79 66 70 58 62 55 47 53 43 42 44 37 33 26 22 24 24 18 14 11 8 6 3 2 6 13 17
26 24 29 30 27 36 53 67 75 84 64 63 59 66 65 59 53 53 46 48 47 40 27 20 25 24 26 23 18 12 10 12 9 5 5 10 15 20
20 17 25 29 30 35 44 65 69 73 66 60 56 61 47 48 58 39 44 43 43 38 37 20 19 16 17 19 18 17 14 13 11 10 9 13 15 20
29 36 31 33 35 39 45 52 59 62 69 67 69 64 53 54 50 41 36 22 31 20 23 38 25 14 5 13 8 14 21 20 16 15 15 14 18 18
42 46 44 38 35 37 44 61 58 68 77 68 57 57 57 52 44 39 45 34 32 24 17 28 25 20 26 24 21 13 18 23 20 16 16 19 24 26
49 49 42 37 32 33 48 53 62 66 71 59 55 51 50 43 45 42 36 28 27 31 20 33 29 19 25 29 31 28 21 21 19 17 20 18 23 29
42 39 37 36 33 42 52 57 55 60 54 47 44 39 41 47 41 36 37 37 35 40 40 32 38 31 35 36 33 34 28 21 16 23 22 14 9 26
43 42 41 38 50 56 55 48 43 35 39 36 36 41 42 43 41 39 42 41 44 43 40 40 41 45 44 42 33 31 26 30 26 30 25 20 19 28
42 46 39 40 50 59 51 48 43 44 40 43 45 47 47 47 46 43 41 43 44 44 39 39 44 45 44 43 39 32 29 32 30 27 23 19 15 24
35 34 34 36 35 44 50 37 34 48 42 49 46 45 40 39 44 44 42 41 39 38 38 41 40 41 45 47 42 41 37 31 30 25 33 29 25 20
37 35 39 38 43 40 39 44 42 42 56 45 48 46 43 46 50 52 47 50 46 44 50 49 43 36 39 40 37 42 43 39 23 29 43 29 21 20
49 44 38 39 42 45 47 50 49 52 52 57 48 50 50 55 55 58 57 52 49 47 53 55 52 44 39 41 39 44 44 35 27 29 38 26 21 14
52 50 41 39 46 49 48 52 55 54 55 56 58 62 57 57 59 58 56 55 53 52 54 56 54 50 51 54 52 48 48 34 32 33 35 22 20 17
48 44 49 47 42 49 50 55 57 54 58 63 64 65 64 61 60 61 58 59 55 54 67 61 60 58 58 61 56 53 46 30 32 44 29 20 18 20
Wind_Direction_500mb
192 199 178 210 219 257 261 201 180 153 140 156 151 175 171 161 168 178 183 167 150 149 152 153 144 152 155 163 171 164 147 155 154 189 204 268 300 311
166 223 206 243 233 198 197 177 176 169 152 159 152 164 167 159 171 169 139 142 145 145 148 145 149 157 157 164 158 146 149 186 182 198 261 290 306 306
249 191 275 252 177 157 160 167 163 179 159 155 157 153 158 163 161 152 150 149 145 147 153 152 161 159 163 163 154 149 172 181 204 247 283 297 301 308
131 129 184 129 132 149 151 149 157 162 157 147 152 155 164 162 155 151 148 147 143 151 154 154 151 158 164 163 175 177 185 205 250 283 282 290 306 307
188 162 159 155 141 142 143 136 153 154 167 157 149 144 141 148 143 140 141 148 149 149 156 155 154 159 167 167 179 188 204 242 254 250 298 298 302 328
176 148 160 147 159 162 163 162 155 164 156 145 147 144 144 151 148 150 143 145 149 156 152 150 158 164 174 181 187 208 226 211 229 271 274 305 356 6
143 138 145 150 143 163 156 157 158 151 144 139 143 147 150 151 148 150 151 156 152 144 150 156 167 178 183 187 200 200 197 216 254 258 3 43 29 10
143 138 128 121 119 138 155 157 161 155 153 147 152 154 154 158 156 157 156 150 142 158 162 161 178 186 189 191 192 198 216 243 225 164 122 70 9 352
126 130 132 123 122 136 153 153 160 158 157 153 154 157 151 153 157 153 149 154 154 152 172 167 180 192 191 195 200 212 231 212 182 157 107 359 347 343
120 122 132 132 135 138 165 161 161 161 160 159 155 151 151 147 149 147 152 153 153 157 179 169 188 204 201 198 206 217 208 185 174 192 244 333 335 324
121 127 134 136 133 134 160 161 160 162 166 158 148 147 141 149 145 147 160 162 157 171 179 218 196 197 195 203 214 224 212 195 204 229 303 312 309 315
133 137 135 132 139 145 160 165 166 163 159 157 156 157 156 153 159 161 166 170 171 175 182 200 210 200 182 198 223 229 226 220 228 249 281 289 310 317
126 138 132 129 125 149 154 164 163 162 158 156 159 161 160 162 167 168 169 183 179 181 192 203 217 194 205 263 222 246 238 232 242 253 271 292 315 331
131 131 128 122 121 137 154 154 153 157 164 164 159 166 168 171 174 177 190 195 215 225 200 216 229 209 206 240 264 279 241 235 249 253 288 314 325 331
136 123 123 127 126 134 151 156 152 152 164 162 165 170 175 174 185 192 202 214 212 195 201 210 222 229 207 233 255 250 236 256 246 240 268 290 301 309
153 150 140 134 133 133 146 157 158 160 162 165 176 179 178 185 198 206 208 212 214 221 231 235 220 217 218 225 243 233 235 229 241 253 268 274 276 292
147 148 150 147 143 143 145 146 154 167 172 168 165 183 193 202 215 223 219 224 228 234 234 233 229 225 222 220 221 230 219 218 221 249 264 261 241 257
154 150 144 155 159 162 162 163 165 186 183 186 189 201 209 218 220 216 218 222 227 233 233 232 233 227 224 222 226 218 217 223 243 259 278 281 279 268
162 157 165 173 176 181 177 174 185 190 191 202 202 213 219 208 206 222 219 225 228 242 250 253 246 236 225 223 216 213 222 230 238 253 298 284 290 286
177 192 189 192 195 199 199 196 197 208 195 203 213 220 215 212 211 223 228 224 232 225 244 254 254 251 236 224 226 221 227 251 242 291 277 280 288 286
195 203 214 210 208 209 210 212 213 212 216 209 213 222 227 214 220 227 232 237 233 225 234 238 252 256 237 226 226 223 221 239 270 264 276 278 284 275
214 209 208 220 221 218 217 220 220 221 223 231 233 228 232 237 231 229 237 233 233 233 234 231 234 234 234 235 238 223 219 231 256 253 271 272 280 287
222 225 219 212 225 227 227 226 226 227 229 230 236 237 237 231 237 235 234 238 236 235 231 229 230 236 235 235 239 233 238 239 249 248 263 271 282 301
Wind_Speed_850mb
6 10 13 13 8 11 26 41 43 42 30 32 28 27 33 33 42 43 66 75 75 77 75 53 44 39 38 34 28 24 21 15 8 5 4 3 6 10
5 5 11 8 6 12 29 45 44 49 35 39 37 37 36 43 35 80 74 81 73 62 55 52 44 44 38 33 26 24 18 11 9 5 5 7 10 15
7 5 7 9 8 18 37 39 38 42 49 36 36 33 43 52 82 80 86 88 63 54 52 53 48 39 31 27 25 19 15 11 7 6 9 13 15 15
9 9 5 16 16 29 35 35 38 27 42 61 56 54 65 82 95 93 81 68 61 56 50 46 43 38 29 16 17 18 13 9 5 9 12 10 9 12
7 9 15 17 23 29 32 29 29 35 41 61 73 88 94 93 86 81 78 66 57 50 50 49 42 33 25 21 19 14 8 8 9 5 5 9 10 9
4 10 13 11 17 18 22 27 31 48 72 87 83 85 86 91 74 77 68 60 58 52 46 42 36 30 26 21 14 10 8 6 4 6 7 4 5 7
12 11 15 14 13 22 31 33 35 77 99 89 89 85 80 77 75 71 69 61 51 46 44 38 31 27 23 17 13 11 10 7 6 5 1 3 4 6
15 17 20 19 22 28 31 31 44 96 100 96 87 84 82 79 69 60 57 63 56 38 40 36 27 26 20 18 16 14 10 7 4 3 3 3 4 9
21 24 25 25 28 34 37 40 69 88 88 96 88 78 70 64 69 66 62 58 55 51 39 35 28 23 22 22 18 12 8 6 6 4 2 2 9 15
27 22 27 29 31 35 50 57 78 83 82 79 66 70 58 62 55 47 53 43 42 44 37 33 26 22 24 24 18 14 11 8 6 3 2 6 13 17
26 24 29 30 27 36 53 67 75 84 64 63 59 66 65 59 53 53 46 48 47 40 27 20 25 24 26 23 18 12 10 12 9 5 5 10 15 20
20 17 25 29 30 35 44 65 69 73 66 60 56 61 47 48 58 39 44 43 43 38 37 20 19 16 17 19 18 17 14 13 11 10 9 13 15 20
29 36 31 33 35 39 45 52 59 62 69 67 69 64 53 54 50 41 36 22 31 20 23 38 25 14 5 13 8 14 21 20 16 15 15 14 18 18
42 46 44 38 35 37 44 61 58 68 77 68 57 57 57 52 44 39 45 34 32 24 17 28 25 20 26 24 21 13 18 23 20 16 16 19 24 26
49 49 42 37 32 33 48 53 62 66 71 59 55 51 50 43 45 42 36 28 27 31 20 33 29 19 25 29 31 28 21 21 19 17 20 18 23 29
42 39 37 36 33 42 52 57 55 60 54 47 44 39 41 47 41 36 37 37 35 40 40 32 38 31 35 36 33 34 28 21 16 23 22 14 9 26
43 42 41 38 50 56 55 48 43 35 39 36 36 41 42 43 41 39 42 41 44 43 40 40 41 45 44 42 33 31 26 30 26 30 25 20 19 28
42 46 39 40 50 59 51 48 43 44 40 43 45 47 47 47 46 43 41 43 44 44 39 39 44 45 44 43 39 32 29 32 30 27 23 19 15 24
35 34 34 36 35 44 50 37 34 48 42 49 46 45 40 39 44 44 42 41 39 38 38 41 40 41 45 47 42 41 37 31 30 25 33 29 25 20
37 35 39 38 43 40 39 44 42 42 56 45 48 46 43 46 50 52 47 50 46 44 50 49 43 36 39 40 37 42 43 39 23 29 43 29 21 20
49 44 38 39 42 45 47 50 49 52 52 57 48 50 50 55 55 58 57 52 49 47 53 55 52 44 39 41 39 44 44 35 27 29 38 26 21 14
52 50 41 39 46 49 48 52 55 54 55 56 58 62 57 57 59 58 56 55 53 52 54 56 54 50 51 54 52 48 48 34 32 33 35 22 20 17
48 44 49 47 42 49 50 55 57 54 58 63 64 65 64 61 60 61 58 59 55 54 67 61 60 58 58 61 56 53 46 30 32 44 29 20 18 20
Wind_Direction_850mb
192 199 178 210 219 257 261 201 180 153 140 156 151 175 171 161 168 178 183 167 150 149 152 153 144 152 155 163 171 164 147 155 154 189 204 268 300 311
166 223 206 243 233 198 197 177 176 169 152 159 152 164 167 159 171 169 139 142 145 145 148 145 149 157 157 164 158 146 149 186 182 198 261 290 306 306
249 191 275 252 177 157 160 167 163 179 159 155 157 153 158 163 161 152 150 149 145 147 153 152 161 159 163 163 154 149 172 181 204 247 283 297 301 308
131 129 184 129 132 149 151 149 157 162 157 147 152 155 164 162 155 151 148 147 143 151 154 154 151 158 164 163 175 177 185 205 250 283 282 290 306 307
188 162 159 155 141 142 143 136 153 154 167 157 149 144 141 148 143 140 141 148 149 149 156 155 154 159 167 167 179 188 204 242 254 250 298 298 302 328
176 148 160 147 159 162 163 162 155 164 156 145 147 144 144 151 148 150 143 145 149 156 152 150 158 164 174 181 187 208 226 211 229 271 274 305 356 6
143 138 145 150 143 163 156 157 158 151 144 139 143 147 150 151 148 150 151 156 152 144 150 156 167 178 183 187 200 200 197 216 254 258 3 43 29 10
143 138 128 121 119 138 155 157 161 155 153 147 152 154 154 158 156 157 156 150 142 158 162 161 178 186 189 191 192 198 216 243 225 164 122 70 9 352
126 130 132 123 122 136 153 153 160 158 157 153 154 157 151 153 157 153 149 154 154 152 172 167 180 192 191 195 200 212 231 212 182 157 107 359 347 343
120 122 132 132 135 138 165 161 161 161 160 159 155 151 151 147 149 147 152 153 153 157 179 169 188 204 201 198 206 217 208 185 174 192 244 333 335 324
121 127 134 136 133 134 160 161 160 162 166 158 148 147 141 149 145 147 160 162 157 171 179 218 196 197 195 203 214 224 212 195 204 229 303 312 309 315
133 137 135 132 139 145 160 165 166 163 159 157 156 157 156 153 159 161 166 170 171 175 182 200 210 200 182 198 223 229 226 220 228 249 281 289 310 317
126 138 132 129 125 149 154 164 163 162 158 156 159 161 160 162 167 168 169 183 179 181 192 203 217 194 205 263 222 246 238 232 242 253 271 292 315 331
131 131 128 122 121 137 154 154 153 157 164 164 159 166 168 171 174 177 190 195 215 225 200 216 229 209 206 240 264 279 241 235 249 253 288 314 325 331
136 123 123 127 126 134 151 156 152 152 164 162 165 170 175 174 185 192 202 214 212 195 201 210 222 229 207 233 255 250 236 256 246 240 268 290 301 309
153 150 140 134 133 133 146 157 158 160 162 165 176 179 178 185 198 206 208 212 214 221 231 235 220 217 218 225 243 233 235 229 241 253 268 274 276 292
147 148 150 147 143 143 145 146 154 167 172 168 165 183 193 202 215 223 219 224 228 234 234 233 229 225 222 220 221 230 219 218 221 249 264 261 241 257
154 150 144 155 159 162 162 163 165 186 183 186 189 201 209 218 220 216 218 222 227 233 233 232 233 227 224 222 226 218 217 223 243 259 278 281 279 268
162 157 165 173 176 181 177 174 185 190 191 202 202 213 219 208 206 222 219 225 228 242 250 253 246 236 225 223 216 213 222 230 238 253 298 284 290 286
177 192 189 192 195 199 199 196 197 208 195 203 213 220 215 212 211 223 228 224 232 225 244 254 254 251 236 224 226 221 227 251 242 291 277 280 288 286
195 203 214 210 208 209 210 212 213 212 216 209 213 222 227 214 220 227 232 237 233 225 234 238 252 256 237 226 226 223 221 239 270 264 276 278 284 275
214 209 208 220 221 218 217 220 220 221 223 231 233 228 232 237 231 229 237 233 233 233 234 231 234 234 234 235 238 223 219 231 256 253 271 272 280 287
222 225 219 212 225 227 227 226 226 227 229 230 236 237 237 231 237 235 234 238 236 235 231 229 230 236 235 235 239 233 238 239 249 248 263 271 282 301